FW2782 Weather Reports


time (UTC)temp
F
wind
direction
speed
knots
gust
knots
rain 1hr
in
rain 24hr
in
rain mn
in
humidity
%
barometer
mb
20260510081511 65 188 1.7 10.4 0.00 0.05 0.03 81 1011.7
20260510080007 64 194 4.3 11.3 0.00 0.05 0.03 81 1012.0
20260510074507 64 86 2.6 11.3 0.00 0.05 0.03 81 1011.9
20260510073003 64 159 2.6 7.8 0.00 0.05 0.03 85 1011.8
20260510071558 62 112 2.6 8.7 0.00 0.05 0.03 88 1011.6
20260510070057 61 96 0.0 3.5 0.00 0.05 0.03 91 1011.7
20260510064552 59 44 0.0 2.6 0.00 0.05 0.03 94 1011.7
20260510063056 58 346 0.0 0.0 0.00 0.05 0.03 95 1011.6
20260510061550 57 346 0.0 1.7 0.00 0.05 0.03 95 1011.5
20260510060054 56 344 0.0 0.9 0.00 0.05 0.03 95 1011.4
20260510054550 56 344 0.0 1.7 0.00 0.05 0.03 95 1011.0
20260510053050 56 344 0.0 0.0 0.00 0.05 0.03 95 1011.2
20260510051620 55 344 0.0 0.9 0.00 0.05 0.03 95 1011.1
20260510050047 55 344 0.0 0.9 0.00 0.05 0.03 94 1011.0
20260510044547 55 344 0.0 0.9 0.00 0.05 0.03 94 1010.9
20260510043117 55 344 0.0 0.0 0.00 0.05 0.03 94 1010.9
20260510041550 55 344 0.0 0.0 0.00 0.05 0.03 93 1011.3
20260510040044 55 344 0.0 0.9 0.00 0.05 0.03 93 1011.3
20260510034545 55 344 0.0 1.7 0.00 0.05 0.03 93 1011.3
20260510033041 56 344 0.0 0.9 0.00 0.05 0.03 93 1011.4
20260510031607 56 344 0.0 0.9 0.01 0.05 0.03 93 1011.4
20260510030038 56 344 0.0 0.9 0.01 0.05 0.03 93 1011.6
20260510024538 56 344 0.0 2.6 0.02 0.05 0.03 94 1011.4
20260510023044 56 337 0.9 2.6 0.02 0.05 0.03 94 1011.8
20260510021538 57 331 0.0 1.7 0.01 0.04 0.02 93 1012.1
20260510020032 57 331 0.0 0.9 0.02 0.04 0.02 93 1012.2
20260510014532 57 331 0.0 0.0 0.01 0.03 0.02 92 1012.1
20260510013030 57 331 0.0 0.9 0.01 0.03 0.02 92 1011.8
20260510011530 57 331 0.0 1.7 0.02 0.03 0.02 92 1011.7
20260510010031 57 333 0.9 3.5 0.01 0.02 0.01 92 1011.8
20260510004527 57 332 1.7 3.5 0.01 0.02 0.01 92 1011.9
20260510003027 57 343 0.9 3.5 0.01 0.02 0.01 92 1012.2
20260510001525 57 74 0.9 2.6 0.00 0.02 0.00 92 1012.4
20260510000024 57 75 0.0 1.7 0.00 0.02 0.00 91 1012.5
20260509234524 58 76 0.0 0.9 0.00 0.02 0.00 91 1012.6
20260509233021 58 76 0.0 1.7 0.00 0.02 0.00 90 1012.4
20260509231519 58 76 0.0 1.7 0.00 0.02 0.00 90 1012.2
20260509230018 58 76 0.0 2.6 0.00 0.02 0.00 89 1012.1
20260509224517 58 77 0.0 1.7 0.02 0.02 0.00 88 1012.3
20260509223016 59 77 0.0 1.7 0.02 0.02 0.00 87 1011.9
20260509221512 59 77 0.0 1.7 0.02 0.02 0.00 86 1012.3
20260509220008 60 144 0.0 2.6 0.02 0.02 0.02 85 1012.5
20260509214508 61 159 0.0 1.7 0.00 0.00 0.00 80 1013.1
20260509213009 63 160 0.9 2.6 0.00 0.00 0.00 73 1013.3
20260509211507 64 127 0.9 4.3 0.00 0.00 0.00 65 1013.2
20260509210007 64 163 0.0 1.7 0.00 0.00 0.00 63 1013.1
20260509204506 64 168 0.0 3.5 0.00 0.00 0.00 64 1013.5
20260509203013 64 156 0.9 6.1 0.00 0.00 0.00 62 1013.5
20260509201504 64 101 2.6 7.0 0.00 0.00 0.00 61 1013.2
20260509200004 65 195 1.7 6.1 0.00 0.00 0.00 59 1013.1
20260509194505 65 132 0.9 7.0 0.00 0.00 0.00 59 1013.0
20260509193004 65 11 0.9 4.3 0.00 0.00 0.00 59 1013.2
20260509191503 65 101 1.7 6.1 0.00 0.00 0.00 58 1013.2
20260509190002 65 360 0.9 7.0 0.00 0.00 0.00 58 1012.9
20260509184502 66 27 0.9 6.1 0.00 0.00 0.00 58 1013.0
20260509183007 66 200 0.9 3.5 0.00 0.00 0.00 59 1013.1
20260509181610 66 101 0.9 4.3 0.00 0.00 0.00 58 1013.0
20260509180058 67 151 0.9 7.8 0.00 0.00 0.00 59 1012.8
20260509174555 67 93 2.6 8.7 0.00 0.00 0.00 59 1012.6
20260509173106 68 297 0.9 9.6 0.00 0.00 0.00 57 1012.7
20260509171603 69 103 0.9 4.3 0.00 0.00 0.00 56 1012.8
20260509170052 69 148 0.9 2.6 0.00 0.00 0.00 55 1012.8
20260509164553 70 101 0.9 7.8 0.00 0.00 0.00 54 1012.7
20260509163059 70 77 0.9 6.1 0.00 0.00 0.00 55 1012.7
20260509161548 70 161 5.2 11.3 0.00 0.00 0.00 55 1012.8
20260509160052 70 161 1.7 10.4 0.00 0.00 0.00 54 1012.9
20260509154547 71 29 3.5 9.6 0.00 0.00 0.00 51 1013.0
20260509153050 71 191 2.6 13.0 0.00 0.00 0.00 52 1013.2
20260509151545 71 177 3.5 9.6 0.00 0.00 0.00 49 1013.5
20260509150042 72 163 1.7 11.3 0.00 0.00 0.00 50 1013.4
20260509144543 71 158 4.3 13.9 0.00 0.00 0.00 53 1013.7
20260509143039 71 96 3.5 10.4 0.00 0.00 0.00 52 1014.2
20260509141544 71 161 0.9 9.6 0.00 0.00 0.00 57 1014.1
20260509140036 71 181 3.5 8.7 0.00 0.00 0.00 57 1014.3
20260509134543 72 134 4.3 9.6 0.00 0.00 0.00 56 1014.5
20260509133032 72 117 4.3 10.4 0.00 0.00 0.00 57 1014.8
20260509131533 72 164 5.2 10.4 0.00 0.00 0.00 55 1015.0
20260509130031 72 148 4.3 12.2 0.00 0.00 0.00 55 1014.9
20260509124531 72 144 4.3 11.3 0.00 0.00 0.00 54 1015.1
20260509123029 73 163 4.3 9.6 0.00 0.00 0.00 55 1015.2
20260509121528 72 161 4.3 13.9 0.00 0.00 0.00 55 1015.3
20260509120025 72 71 4.3 10.4 0.00 0.00 0.00 55 1015.5
20260509114525 72 145 5.2 12.2 0.00 0.00 0.00 53 1015.6
20260509113024 73 153 4.3 9.6 0.00 0.00 0.00 52 1015.8
20260509111522 73 111 4.3 13.0 0.00 0.00 0.00 50 1015.7
20260509110021 73 47 3.5 7.8 0.00 0.00 0.00 52 1015.9
20260509104520 73 109 2.6 8.7 0.00 0.00 0.00 49 1016.0
20260509103119 73 118 2.6 10.4 0.00 0.00 0.00 48 1016.1
20260509101515 73 46 2.6 11.3 0.00 0.00 0.00 49 1016.2
20260509100015 72 147 4.3 11.3 0.00 0.00 0.00 50 1016.1
20260509094511 72 132 1.7 12.2 0.00 0.00 0.00 51 1016.2
20260509093009 71 332 2.6 11.3 0.00 0.00 0.00 49 1016.4
20260509091509 71 144 2.6 7.8 0.00 0.00 0.00 51 1016.4
20260509090004 70 119 1.7 9.6 0.00 0.00 0.00 59 1016.6
20260509084501 70 118 2.6 6.1 0.00 0.00 0.00 60 1016.6
20260509083059 69 111 0.9 7.0 0.00 0.00 0.00 62 1016.6